Regional Weather Roundup
Issued by NWS

Home | Current Version | Previous Version | Graphics & Text | Print | Product List | Glossary On
Versions: 1 2 3 4 5 6 7 8 9 10 11 12 13 14 15 16 17 18 19 20 21 22 23 24 25 26 27 28 29 30 31 32 33 34 35 36 37 38 39 40 41 42 43 44 45 46 47 48 49 50
000
ASUS43 KDMX 211501
RWRIA

WEATHER ROUNDUP FOR IOWA
NATIONAL WEATHER SERVICE DES MOINES IA
1000 AM CDT MON MAY 21 2018

NOTE: "FAIR" INDICATES FEW OR NO CLOUDS BELOW 12,000 FEET WITH NO
SIGNIFICANT WEATHER AND/OR OBSTRUCTIONS TO VISIBILITY.

* - THESE STATIONS ARE NOT NWS STATIONS...THUS NOT UNDER NWS
QUALITY CONTROL.  THEY ALSO DO NOT REPORT WEATHER SUCH
AS PRECIPITATION OR FOG.

IAZ001>003-012>014-020>022-031>034-043>046-211600-
   NORTHWEST IOWA

CITY           SKY/WX    TMP DP  RH WIND       PRES   REMARKS
CARROLL *      CLOUDY   N/A N/A N/A CALM      30.04S FOG
CHEROKEE *     CLOUDY    57  57 100 S3        30.04S FOG
DENISON *      CLOUDY    59  59 100 CALM      30.05F FOG
LE MARS *      FOG       59  57  94 CALM      30.04S VSB 1
ORANGE CITY *  CLOUDY    57  57 100 SE3       30.04F FOG
SHELDON *      CLOUDY    57  57 100 SE5       30.03S FOG
SIOUX CITY     CLOUDY    57  55  93 W9        30.04S FOG
SPENCER        CLOUDY    57  56  96 SE5       30.05S FOG
STORM LAKE *   FOG       57  57 100 S8        30.04S VSB 1/4
$$

IAZ055>058-069>071-079>083-090>094-211600-
   SOUTHWEST IOWA

CITY           SKY/WX    TMP DP  RH WIND       PRES   REMARKS
ATLANTIC *     PTSUNNY   61  61 100 CALM      30.04S FOG
AUDUBON *      FOG       59  57  94 CALM      30.05S VSB 3/4
CLARINDA *     CLOUDY    61  59  94 W8        30.07S
COUNCIL BLFS * CLOUDY    59  59 100 W6        30.05S FOG
CRESTON *      CLOUDY    61  61 100 NW6       30.05S FOG
HARLAN  *      CLOUDY    61  59  94 CALM      30.07S FOG
LAMONI         CLOUDY    63  60  90 W6        30.04R
RED OAK *      CLOUDY    63  59  88 NW3       30.04F FOG
SHENANDOAH *   CLOUDY    59  57  94 W8        30.06S FOG
$$

IAZ047>049-059>061-072>074-084-211600-
   CENTRAL IOWA

CITY           SKY/WX    TMP DP  RH WIND       PRES   REMARKS
AMES           CLOUDY    59  56  89 CALM      30.04R
ANKENY *       CLOUDY    59  57  94 CALM      30.04R
BOONE *        CLOUDY    59  57  94 CALM      30.03R FOG
CHARITON *     CLOUDY    61  61 100 CALM      30.02S FOG
DES MOINES     DRIZZLE   60  58  92 CALM      30.02S FOG
GRINNELL*      CLOUDY    57  56  96 E7        30.03S FOG
KNOXVILLE *    CLOUDY    59  59 100 CALM      30.01R FOG
MARSHALLTOWN   CLOUDY    57  57 100 E8        30.02F
NEWTON *       FOG       57  57 100 E6        30.03R VSB 1
PELLA *        CLOUDY    58  58  97 CALM      30.03S FOG
PERRY *        CLOUDY    60  59  96 CALM      30.04S FOG
$$

IAZ004>006-015-016-023>025-035-036-211600-
   NORTH CENTRAL IOWA

CITY           SKY/WX    TMP DP  RH WIND       PRES   REMARKS
ALGONA *       CLOUDY    57  55  94 SE6       30.06S FOG
CLARION *      FOG       55  54  94 E7        30.05S VSB 1
ESTHERVILLE    CLOUDY    56  55  97 SE7       30.05S FOG
FORT DODGE *   CLOUDY    57  56  96 E5        30.05S FOG
MASON CITY     CLOUDY    56  54  93 E8        30.07S
FOREST CITY *  CLOUDY    59  55  88 E6        30.06R
WEBSTER CITY * CLOUDY    59  57  94 E5        30.03S
IOWA FALLS *   CLOUDY    57  55  95 E5        30.05S
$$

IAZ007>011-017>019-026>030-037>042-050>054-066-211600-
   NORTHEAST IOWA

CITY           SKY/WX    TMP DP  RH WIND       PRES   REMARKS
CEDAR RAPIDS   CLOUDY    55  55 100 E14       30.03R FOG
CHARLES CITY * CLOUDY    55  54  94 E7        30.07R
CLINTON *      LGT RAIN  57  56  96 E13       30.06F FOG
DECORAH *      CLOUDY    52  52 100 E6        30.06S
DUBUQUE        LGT RAIN  54  53  97 E6        30.07F
MONTICELLO *   PTSUNNY   55  55 100 E8        30.05F
OELWEIN *      CLOUDY    54  54 100 E13       30.04F
WATERLOO       CLOUDY    56  55  97 E9        30.03F
$$

IAZ064-065-067-068-078-211600-
   EAST CENTRAL IOWA

CITY           SKY/WX    TMP DP  RH WIND       PRES   REMARKS
DAVENPORT      CLOUDY    57  55  93 SE9       30.07F FOG
IOWA CITY      CLOUDY    57  55  93 E7        30.05S FOG
MT. PLEASANT * DRIZZLE   61  61 100 SE8       30.03S
MUSCATINE *    CLOUDY    59  57  94 SE7       30.04S
QUAD CITIES    CLOUDY    59  57  93 SE7       30.05S FOG
$$

IAZ062-063-075>077-085>089-095>099-211600-
   SOUTHEAST IOWA

CITY           SKY/WX    TMP DP  RH WIND       PRES   REMARKS
BURLINGTON     CLOUDY    62  61  96 SE8       30.03S FOG
FAIRFIELD *    CLOUDY    63  63 100 SE10      30.01F FOG
FORT MADISON * CLOUDY    63  63 100 SE3       30.03F FOG
KEOKUK *       CLOUDY    66  66 100 S7        30.02S
OSKALOOSA *    CLOUDY    60  60  99 SE9       30.01F FOG
CENTERVILLE *    N/A     64  64 100 SW7       30.04R
OTTUMWA        CLOUDY    63  62  97 SE6       30.00S FOG
WASHINGTON *   CLOUDY    61  59  94 SE12      30.03F FOG
$$

ABBREVIATIONS USED IN REMARKS
   TC - TEMPERATURES IN CELSIUS
  WCI - WIND CHILL INDEX
   HX - HEAT INDEX
  VSB - VISIBILITY
$$





USA.gov is the U.S. government's official web portal to all federal, state and local government web resources and services.